This demonstration page uses our WeatherBlox Daily Observations layout. Learn more.

Left ArrowRight Arrow

39.01783, -85.05884

Hourly Observations for July 17, 2020

Temp ( °F °C ) Dew Point ( °F °C ) Humidity (%) Winds ( mph kmh ) Pressure ( in mb ) Visibility ( mi km ) Precip ( " mm )
12:52 am 00:52 Clear 73 22.8 67 19.4 81 81 Calm 30.08 1019 10 16 0.00 0.00
1:52 am 01:52 Clear 69 20.6 66 18.9 90 90 W 6 9 30.11 1020 10 16 0.00 0.00
2:52 am 02:52 Mostly Clear 69 20.6 66 18.9 90 90 WNW 5 7 30.11 1020 10 16 0.00 0.00
3:52 am 03:52 Partly Cloudy 68 20 66 18.9 93 93 WNW 5 7 30.11 1020 10 16 0.00 0.00
4:52 am 04:52 Partly Cloudy 67 19.4 66 18.9 97 97 Calm 30.11 1020 10 16 0.00 0.00
5:52 am 05:52 Partly Cloudy 66 18.9 65 18.3 96 96 Calm 30.13 1020 10 16 0.00 0.00
6:52 am 06:52 Mostly Cloudy with Patchy Fog 66 18.9 64 17.8 93 93 SW 3 6 30.15 1021 7 11 0.00 0.00
7:52 am 07:52 Mostly Cloudy with Mist and Fog 71 21.7 67 19.4 87 87 Calm 30.17 1022 6 10 0.00 0.00
8:52 am 08:52 Mostly Cloudy 75 23.9 69 20.6 82 82 N 3 6 30.18 1022 8 13 0.00 0.00
9:52 am 09:52 Partly Cloudy 79 26.1 68 20 69 69 NE 5 7 30.17 1022 10 16 0.00 0.00
10:52 am 10:52 Mostly Cloudy 83 28.3 65 18.3 55 55 NE 5 7 30.17 1022 10 16 0.00 0.00
11:52 am 11:52 Mostly Cloudy 85 29.4 65 18.3 51 51 ENE 8 13 30.16 1022 10 16 0.00 0.00
12:52 pm 12:52 Mostly Cloudy 85 29.4 65 18.3 51 51 Calm 30.16 1021 10 16 0.00 0.00
1:52 pm 13:52 Mostly Cloudy 87 30.6 66 18.9 50 50 WNW 6 9 30.16 1021 10 16 0.00 0.00
2:52 pm 14:52 Mostly Cloudy 85 29.4 67 19.4 55 55 VRB 5 7 30.14 1021 10 16 0.00 0.00
3:52 pm 15:52 Mostly Cloudy 86 30 68 20 55 55 SSW 8 13 30.11 1020 10 16 0.00 0.00
4:52 pm 16:52 Partly Cloudy 87 30.6 68 20 53 53 SSW 9 15 30.10 1019 10 16 0.00 0.00
5:52 pm 17:52 Partly Cloudy 86 30 66 18.9 51 51 S 9 15 30.09 1019 10 16 0.00 0.00
6:52 pm 18:52 Mostly Sunny 86 30 65 18.3 49 49 VRB 3 6 30.08 1019 10 16 0.00 0.00
7:52 pm 19:52 Mostly Sunny 84 28.9 68 20 59 59 SW 5 7 30.07 1018 10 16 0.00 0.00
8:52 pm 20:52 Mostly Sunny 81 27.2 67 19.4 62 62 SSW 3 6 30.09 1019 10 16 0.00 0.00
9:52 pm 21:52 Mostly Clear 79 26.1 68 20 69 69 Calm 30.08 1019 10 16 0.00 0.00
10:52 pm 22:52 Clear 78 25.6 68 20 71 71 S 3 6 30.09 1019 10 16 0.00 0.00
11:52 pm 23:52 Clear 75 23.9 68 20 79 79 S 3 6 30.10 1019 10 16 0.00 0.00

Powered by AerisWeather